| time (UTC) | temp C | wind direction | speed KPH | gust KPH | rain 1hr cm | rain 24hr cm | rain mn cm | humidity % | barometer mb |
| 20260506180303 | 13 | 301 | 3.2 | 3.2 | 0.00 | 1.63 | 1.63 | 65 | 1011.8 |
| 20260506175800 | 12 | 93 | 1.6 | 1.6 | 0.00 | 1.63 | 1.63 | 65 | 1011.8 |
| 20260506175257 | 12 | 34 | 3.2 | 4.8 | 0.00 | 1.63 | 1.63 | 65 | 1011.5 |
| 20260506174754 | 12 | 96 | 1.6 | 1.6 | 0.00 | 1.63 | 1.63 | 66 | 1011.8 |
| 20260506174251 | 12 | 57 | 3.2 | 4.8 | 0.00 | 1.63 | 1.63 | 68 | 1011.8 |
| 20260506173749 | 12 | 261 | 4.8 | 9.7 | 0.00 | 1.63 | 1.63 | 67 | 1011.8 |
| 20260506173246 | 13 | 285 | 4.8 | 4.8 | 0.00 | 1.63 | 1.63 | 69 | 1011.5 |
| 20260506172742 | 12 | 266 | 4.8 | 4.8 | 0.00 | 1.63 | 1.63 | 67 | 1012.0 |
| 20260506172239 | 12 | 241 | 9.7 | 11.3 | 0.00 | 1.63 | 1.63 | 70 | 1011.9 |
| 20260506171737 | 12 | 282 | 8.0 | 14.5 | 0.00 | 1.63 | 1.63 | 71 | 1011.9 |
| 20260506171233 | 12 | 287 | 6.4 | 12.9 | 0.00 | 1.63 | 1.63 | 73 | 1012.0 |
| 20260506170731 | 12 | 294 | 3.2 | 4.8 | 0.00 | 1.63 | 1.63 | 72 | 1011.8 |
| 20260506170227 | 12 | 319 | 1.6 | 1.6 | 0.00 | 1.63 | 1.63 | 75 | 1011.8 |
| 20260506165726 | 12 | 248 | 8.0 | 9.7 | 0.00 | 1.63 | 1.63 | 75 | 1011.7 |
| 20260506165223 | 12 | 334 | 3.2 | 3.2 | 0.00 | 1.63 | 1.63 | 75 | 1011.9 |
| 20260506164720 | 12 | 261 | 4.8 | 4.8 | 0.00 | 1.63 | 1.63 | 80 | 1011.8 |
| 20260506164217 | 12 | 291 | 4.8 | 4.8 | 0.00 | 1.63 | 1.63 | 77 | 1011.9 |
| 20260506163714 | 11 | 292 | 8.0 | 11.3 | 0.00 | 1.63 | 1.63 | 79 | 1011.9 |
| 20260506163208 | 12 | 281 | 4.8 | 4.8 | 0.00 | 1.63 | 1.63 | 80 | 1011.8 |
| 20260506162705 | 12 | 342 | 4.8 | 8.0 | 0.00 | 1.63 | 1.63 | 80 | 1011.8 |
| 20260506162202 | 11 | 276 | 4.8 | 4.8 | 0.00 | 1.63 | 1.63 | 79 | 1011.7 |
| 20260506161659 | 11 | 330 | 9.7 | 11.3 | 0.00 | 1.63 | 1.63 | 81 | 1011.6 |
| 20260506161156 | 11 | 296 | 6.4 | 8.0 | 0.00 | 1.63 | 1.63 | 82 | 1011.6 |
| 20260506160654 | 11 | 337 | 1.6 | 1.6 | 0.00 | 1.63 | 1.63 | 81 | 1011.5 |
| 20260506160151 | 11 | 304 | 4.8 | 8.0 | 0.00 | 1.63 | 1.63 | 82 | 1011.5 |
| 20260506155649 | 11 | 12 | 3.2 | 3.2 | 0.00 | 1.63 | 1.63 | 83 | 1011.4 |
| 20260506155146 | 9 | 292 | 4.8 | 8.0 | 0.00 | 1.63 | 1.63 | 91 | 1011.2 |
| 20260506153248 | 9 | 289 | 6.4 | 8.0 | 0.00 | 1.63 | 1.63 | 95 | 1011.2 |
| 20260506152745 | 9 | 12 | 1.6 | 1.6 | 0.00 | 1.63 | 1.63 | 98 | 1010.8 |
| 20260506152242 | 9 | 253 | 3.2 | 3.2 | 0.00 | 1.63 | 1.63 | 99 | 1010.9 |
| 20260506151741 | 8 | 8 | 3.2 | 4.8 | 0.00 | 1.63 | 1.63 | 99 | 1011.0 |
| 20260506151237 | 8 | 350 | 3.2 | 3.2 | 0.00 | 1.63 | 1.63 | 99 | 1010.8 |
| 20260506150733 | 8 | 36 | 3.2 | 3.2 | 0.00 | 1.63 | 1.63 | 99 | 1010.8 |
| 20260506150231 | 8 | 317 | 3.2 | 3.2 | 0.00 | 1.63 | 1.63 | 99 | 1010.9 |
| 20260506145728 | 8 | 7 | 1.6 | 3.2 | 0.00 | 1.63 | 1.63 | 99 | 1010.9 |
| 20260506145224 | 8 | 273 | 4.8 | 4.8 | 0.00 | 1.63 | 1.63 | 99 | 1011.0 |
| 20260506144722 | 7 | 346 | 3.2 | 4.8 | 0.00 | 1.63 | 1.63 | 99 | 1010.8 |
| 20260506144219 | 8 | 326 | 3.2 | 3.2 | 0.00 | 1.63 | 1.63 | 99 | 1010.7 |
| 20260506143716 | 8 | 326 | 4.8 | 4.8 | 0.00 | 1.63 | 1.63 | 99 | 1010.7 |
| 20260506143214 | 8 | 308 | 6.4 | 9.7 | 0.00 | 1.63 | 1.63 | 99 | 1010.7 |
| 20260506142712 | 8 | 49 | 6.4 | 9.7 | 0.00 | 1.63 | 1.63 | 99 | 1010.4 |
| 20260506142210 | 8 | 298 | 3.2 | 3.2 | 0.00 | 1.63 | 1.63 | 99 | 1010.3 |
| 20260506141708 | 8 | 66 | 0.0 | 1.6 | 0.00 | 1.63 | 1.63 | 99 | 1010.3 |
| 20260506141206 | 8 | 310 | 1.6 | 1.6 | 0.00 | 1.63 | 1.63 | 99 | 1010.1 |
| 20260506140703 | 8 | 6 | 3.2 | 3.2 | 0.00 | 1.63 | 1.63 | 99 | 1010.0 |
| 20260506140200 | 8 | 336 | 1.6 | 3.2 | 0.00 | 1.63 | 1.63 | 99 | 1010.0 |
| 20260506135657 | 8 | 3 | 1.6 | 1.6 | 0.00 | 1.63 | 1.63 | 99 | 1010.0 |
| 20260506135153 | 8 | 25 | 1.6 | 1.6 | 0.00 | 1.63 | 1.63 | 99 | 1009.9 |
| 20260506134650 | 8 | 53 | 1.6 | 1.6 | 0.00 | 1.63 | 1.63 | 99 | 1009.8 |
| 20260506134145 | 8 | 76 | 0.0 | 1.6 | 0.00 | 1.63 | 1.63 | 99 | 1009.7 |
| 20260506133643 | 8 | 89 | 0.0 | 1.6 | 0.00 | 1.63 | 1.63 | 99 | 1009.8 |
| 20260506133140 | 8 | 33 | 1.6 | 1.6 | 0.00 | 1.63 | 1.63 | 99 | 1009.6 |
| 20260506132637 | 8 | 85 | 3.2 | 3.2 | 0.00 | 1.63 | 1.63 | 99 | 1009.8 |
| 20260506132134 | 8 | 253 | 1.6 | 3.2 | 0.00 | 1.63 | 1.63 | 99 | 1009.8 |
| 20260506131631 | 8 | 277 | 3.2 | 3.2 | 0.00 | 1.63 | 1.63 | 99 | 1009.8 |
| 20260506131127 | 8 | 36 | 0.0 | 0.0 | 0.00 | 1.63 | 1.63 | 99 | 1009.6 |
| 20260506130624 | 8 | 41 | 1.6 | 3.2 | 0.00 | 1.63 | 1.63 | 99 | 1009.5 |
| 20260506130122 | 8 | 66 | 0.0 | 0.0 | 0.00 | 1.63 | 1.63 | 99 | 1009.3 |
| 20260506125620 | 8 | 331 | 0.0 | 0.0 | 0.00 | 1.63 | 1.63 | 99 | 1009.5 |
| 20260506125117 | 7 | 30 | 1.6 | 4.8 | 0.00 | 1.63 | 1.63 | 99 | 1009.6 |
| 20260506124615 | 7 | 312 | 4.8 | 4.8 | 0.00 | 1.63 | 1.63 | 99 | 1009.3 |
| 20260506124113 | 7 | 32 | 1.6 | 1.6 | 0.00 | 1.63 | 1.63 | 99 | 1009.6 |
| 20260506123610 | 7 | 51 | 0.0 | 1.6 | 0.00 | 1.63 | 1.63 | 99 | 1009.5 |
| 20260506123109 | 7 | 67 | 0.0 | 0.0 | 0.00 | 1.63 | 1.63 | 99 | 1009.1 |
| 20260506122604 | 7 | 217 | 3.2 | 3.2 | 0.00 | 1.63 | 1.63 | 99 | 1009.4 |
| 20260506122103 | 7 | 286 | 4.8 | 4.8 | 0.00 | 1.63 | 1.63 | 99 | 1009.7 |
| 20260506121600 | 7 | 264 | 0.0 | 0.0 | 0.00 | 1.63 | 1.63 | 99 | 1009.2 |
| 20260506121056 | 7 | 266 | 0.0 | 0.0 | 0.00 | 1.63 | 1.63 | 99 | 1009.0 |
| 20260506120555 | 7 | 17 | 1.6 | 1.6 | 0.00 | 1.63 | 1.63 | 99 | 1009.0 |
| 20260506120051 | 7 | 71 | 0.0 | 0.0 | 0.00 | 1.63 | 1.63 | 99 | 1008.7 |
| 20260506115549 | 7 | 95 | 0.0 | 0.0 | 0.00 | 1.63 | 1.63 | 99 | 1008.6 |
| 20260506115048 | 7 | 171 | 0.0 | 3.2 | 0.00 | 1.63 | 1.63 | 99 | 1008.4 |
| 20260506114544 | 7 | 76 | 1.6 | 1.6 | 0.18 | 1.63 | 1.63 | 99 | 1008.6 |
| 20260506114043 | 7 | 91 | 0.0 | 1.6 | 0.18 | 1.63 | 1.63 | 99 | 1008.9 |
| 20260506113541 | 7 | 40 | 0.0 | 0.0 | 0.13 | 1.60 | 1.60 | 99 | 1008.9 |
| 20260506113038 | 7 | 42 | 1.6 | 3.2 | 0.13 | 1.60 | 1.60 | 99 | 1008.4 |
| 20260506112534 | 7 | 48 | 3.2 | 4.8 | 0.18 | 1.57 | 1.57 | 99 | 1008.3 |
| 20260506112031 | 7 | 73 | 0.0 | 0.0 | 0.18 | 1.57 | 1.57 | 99 | 1008.8 |
| 20260506111530 | 7 | 55 | 0.0 | 0.0 | 0.00 | 1.55 | 1.55 | 99 | 1008.8 |
| 20260506111026 | 7 | 2 | 1.6 | 1.6 | 0.00 | 1.55 | 1.55 | 99 | 1009.0 |
| 20260506110524 | 7 | 33 | 0.0 | 0.0 | 0.00 | 1.55 | 1.55 | 99 | 1008.9 |
| 20260506110021 | 7 | 92 | 0.0 | 0.0 | 0.00 | 1.55 | 1.55 | 99 | 1008.4 |
| 20260506105517 | 7 | 40 | 1.6 | 3.2 | 0.00 | 1.55 | 1.55 | 99 | 1008.2 |
| 20260506105015 | 7 | 67 | 0.0 | 0.0 | 0.00 | 1.55 | 1.55 | 99 | 1007.9 |
| 20260506104513 | 7 | 99 | 0.0 | 0.0 | 0.00 | 1.55 | 1.55 | 99 | 1007.7 |
| 20260506104010 | 6 | 27 | 4.8 | 8.0 | 0.00 | 1.55 | 1.55 | 99 | 1007.6 |
| 20260506103507 | 6 | 40 | 0.0 | 0.0 | 0.00 | 1.55 | 1.55 | 99 | 1007.1 |
| 20260506103004 | 7 | 40 | 1.6 | 1.6 | 0.00 | 1.55 | 1.55 | 99 | 1007.0 |
| 20260506102502 | 6 | 41 | 4.8 | 4.8 | 0.00 | 1.55 | 1.55 | 99 | 1006.7 |
| 20260506101959 | 6 | 53 | 1.6 | 1.6 | 0.00 | 1.55 | 1.55 | 99 | 1007.1 |
| 20260506101455 | 6 | 88 | 4.8 | 4.8 | 0.00 | 1.55 | 1.55 | 99 | 1007.2 |
| 20260506100953 | 6 | 51 | 0.0 | 0.0 | 0.00 | 1.55 | 1.55 | 99 | 1007.6 |
| 20260506100451 | 6 | 33 | 1.6 | 1.6 | 0.13 | 1.55 | 1.55 | 99 | 1007.5 |
| 20260506095949 | 6 | 76 | 3.2 | 3.2 | 0.13 | 1.55 | 1.55 | 99 | 1007.5 |
| 20260506095447 | 6 | 42 | 3.2 | 3.2 | 0.18 | 1.52 | 1.52 | 99 | 1007.5 |
| 20260506094943 | 6 | 116 | 1.6 | 1.6 | 0.18 | 1.52 | 1.52 | 99 | 1007.1 |
| 20260506094441 | 6 | 47 | 4.8 | 4.8 | 0.00 | 1.50 | 1.50 | 99 | 1007.6 |
| 20260506093939 | 6 | 29 | 1.6 | 1.6 | 0.18 | 1.50 | 1.50 | 99 | 1007.9 |
| 20260506093437 | 6 | 263 | 0.0 | 0.0 | 0.30 | 1.50 | 1.50 | 99 | 1007.9 |
| 20260506092934 | 7 | 193 | 0.0 | 0.0 | 0.13 | 1.47 | 1.47 | 99 | 1008.0 |
| 20260506092432 | 7 | 56 | 0.0 | 1.6 | 0.18 | 1.45 | 1.45 | 99 | 1007.9 |
| 20260506091928 | 7 | 71 | 0.0 | 0.0 | 0.30 | 1.45 | 1.45 | 99 | 1007.7 |
| 20260506091427 | 7 | 65 | 3.2 | 3.2 | 0.30 | 1.42 | 1.42 | 99 | 1007.7 |
| 20260506090923 | 7 | 31 | 0.0 | 1.6 | 0.30 | 1.40 | 1.40 | 99 | 1007.7 |
| 20260506090421 | 7 | 47 | 0.0 | 1.6 | 0.13 | 1.37 | 1.37 | 99 | 1007.6 |
| 20260506085918 | 7 | 291 | 3.2 | 4.8 | 0.00 | 1.35 | 1.35 | 99 | 1007.7 |
| 20260506085414 | 7 | 355 | 4.8 | 9.7 | 0.00 | 1.35 | 1.35 | 99 | 1007.7 |
| 20260506084911 | 7 | 299 | 3.2 | 3.2 | 0.00 | 1.35 | 1.35 | 99 | 1007.7 |
| 20260506084408 | 8 | 4 | 1.6 | 3.2 | 0.00 | 1.35 | 1.35 | 99 | 1007.3 |
| 20260506083904 | 8 | 256 | 4.8 | 8.0 | 0.00 | 1.35 | 1.35 | 99 | 1007.4 |
| 20260506083401 | 8 | 16 | 0.0 | 0.0 | 0.00 | 1.35 | 1.35 | 99 | 1007.1 |
| 20260506082858 | 8 | 33 | 0.0 | 0.0 | 0.18 | 1.35 | 1.35 | 99 | 1006.8 |
| 20260506082355 | 8 | 127 | 0.0 | 0.0 | 0.18 | 1.35 | 1.35 | 99 | 1006.7 |
| 20260506081851 | 8 | 72 | 0.0 | 1.6 | 0.30 | 1.32 | 1.32 | 99 | 1006.7 |
| 20260506081349 | 8 | 43 | 1.6 | 3.2 | 0.43 | 1.32 | 1.32 | 99 | 1006.9 |
| 20260506080847 | 9 | 296 | 0.0 | 1.6 | 0.30 | 1.27 | 1.27 | 99 | 1007.0 |
| 20260506080343 | 9 | 63 | 0.0 | 0.0 | 0.30 | 1.24 | 1.24 | 99 | 1006.9 |
| 20260506073327 | 9 | 266 | 0.0 | 0.0 | 0.30 | 0.97 | 0.97 | 99 | 1006.8 |
| 20260506072824 | 9 | 186 | 0.0 | 0.0 | 0.30 | 0.94 | 0.94 | 99 | 1006.6 |
| 20260506072322 | 9 | 112 | 0.0 | 0.0 | 0.30 | 0.91 | 0.91 | 99 | 1006.3 |
| 20260506071819 | 9 | 37 | 0.0 | 0.0 | 0.13 | 0.89 | 0.89 | 99 | 1006.3 |
| 20260506071317 | 9 | 70 | 0.0 | 0.0 | 0.18 | 0.86 | 0.86 | 99 | 1006.2 |
| 20260506070814 | 9 | 46 | 0.0 | 1.6 | 0.36 | 0.86 | 0.86 | 99 | 1006.1 |
| 20260506070311 | 9 | 72 | 0.0 | 0.0 | 0.30 | 0.84 | 0.84 | 99 | 1006.2 |
| 20260506062248 | 10 | 42 | 1.6 | 1.6 | 0.18 | 0.69 | 0.69 | 99 | 1006.6 |
| 20260506061744 | 10 | 45 | 0.0 | 1.6 | 0.30 | 0.69 | 0.69 | 99 | 1006.7 |
| 20260506061241 | 10 | 308 | 0.0 | 0.0 | 0.30 | 0.66 | 0.66 | 99 | 1007.0 |
| 20260506060739 | 10 | 38 | 0.0 | 0.0 | 0.18 | 0.64 | 0.64 | 99 | 1007.1 |
| 20260506060237 | 10 | 75 | 0.0 | 0.0 | 0.00 | 0.61 | 0.61 | 99 | 1007.0 |
| 20260506051209 | 12 | 22 | 3.2 | 3.2 | 0.30 | 0.46 | 0.46 | 99 | 1007.2 |
| 20260506050707 | 13 | 244 | 4.8 | 4.8 | 0.61 | 0.43 | 0.43 | 99 | 1007.7 |
| 20260506050203 | 13 | 188 | 0.0 | 0.0 | 0.43 | 0.38 | 0.38 | 99 | 1007.6 |
| 20260506044655 | 13 | 196 | 0.0 | 0.0 | 0.30 | 0.28 | 0.28 | 99 | 1007.6 |
| 20260506044151 | 13 | 179 | 0.0 | 1.6 | 0.48 | 0.25 | 0.25 | 99 | 1007.7 |
| 20260506043649 | 13 | 182 | 1.6 | 1.6 | 0.48 | 0.23 | 0.23 | 99 | 1008.0 |
| 20260506043146 | 13 | 258 | 3.2 | 3.2 | 0.30 | 0.18 | 0.18 | 99 | 1008.0 |
| 20260506042646 | 13 | 221 | 0.0 | 0.0 | 0.30 | 0.15 | 0.15 | 99 | 1008.1 |
| 20260506042143 | 13 | 266 | 0.0 | 0.0 | 0.30 | 0.13 | 0.13 | 99 | 1008.0 |
| 20260506041641 | 14 | 225 | 0.0 | 0.0 | 0.43 | 0.10 | 0.10 | 99 | 1007.7 |
| 20260506041138 | 14 | 252 | 0.0 | 0.0 | 0.48 | 0.08 | 0.08 | 99 | 1008.3 |
| 20260506040635 | 14 | 253 | 0.0 | 0.0 | 0.18 | 0.03 | 0.03 | 99 | 1008.2 |
| 20260506040132 | 13 | 191 | 0.0 | 0.0 | 0.13 | 0.00 | 0.00 | 99 | 1008.1 |
| 20260506035629 | 14 | 184 | 0.0 | 0.0 | 0.13 | 0.79 | 0.79 | 99 | 1007.9 |
| 20260506035125 | 13 | 184 | 0.0 | 0.0 | 0.18 | 0.76 | 0.76 | 99 | 1008.2 |
| 20260506034623 | 13 | 184 | 0.0 | 0.0 | 0.30 | 0.76 | 0.76 | 99 | 1008.3 |
| 20260506034120 | 13 | 183 | 0.0 | 0.0 | 0.30 | 0.74 | 0.74 | 99 | 1008.2 |
| 20260506033617 | 14 | 183 | 0.0 | 0.0 | 0.36 | 0.71 | 0.71 | 99 | 1008.0 |
| 20260506033114 | 14 | 182 | 0.0 | 0.0 | 0.18 | 0.69 | 0.69 | 99 | 1008.3 |
| 20260506032611 | 14 | 179 | 0.0 | 0.0 | 0.13 | 0.66 | 0.66 | 99 | 1008.4 |
| 20260506032108 | 14 | 176 | 0.0 | 0.0 | 0.13 | 0.66 | 0.66 | 99 | 1008.2 |
| 20260506031605 | 14 | 177 | 0.0 | 0.0 | 0.00 | 0.64 | 0.64 | 99 | 1008.3 |
| 20260506031102 | 14 | 211 | 0.0 | 0.0 | 0.18 | 0.64 | 0.64 | 99 | 1008.3 |
| 20260506030601 | 14 | 216 | 0.0 | 0.0 | 0.18 | 0.64 | 0.64 | 99 | 1008.4 |
| 20260506030057 | 14 | 255 | 1.6 | 1.6 | 0.13 | 0.61 | 0.61 | 99 | 1008.4 |
| 20260506025554 | 14 | 254 | 3.2 | 3.2 | 0.13 | 0.61 | 0.61 | 99 | 1008.4 |
| 20260506025050 | 14 | 259 | 0.0 | 0.0 | 0.00 | 0.58 | 0.58 | 99 | 1008.4 |
| 20260506024548 | 14 | 253 | 0.0 | 0.0 | 0.18 | 0.58 | 0.58 | 99 | 1008.6 |
| 20260506024044 | 14 | 198 | 0.0 | 0.0 | 0.18 | 0.58 | 0.58 | 99 | 1008.5 |
| 20260506023540 | 14 | 245 | 0.0 | 1.6 | 0.00 | 0.56 | 0.56 | 99 | 1008.7 |
| 20260506023038 | 14 | 259 | 4.8 | 4.8 | 0.13 | 0.56 | 0.56 | 99 | 1008.7 |
| 20260506022535 | 14 | 259 | 1.6 | 1.6 | 0.13 | 0.56 | 0.56 | 99 | 1008.7 |
| 20260506022032 | 14 | 256 | 1.6 | 1.6 | 0.00 | 0.53 | 0.53 | 99 | 1008.6 |
| 20260506021530 | 14 | 227 | 0.0 | 0.0 | 0.00 | 0.53 | 0.53 | 99 | 1008.6 |
| 20260506021027 | 14 | 201 | 0.0 | 0.0 | 0.18 | 0.53 | 0.53 | 99 | 1008.7 |
| 20260506020524 | 14 | 177 | 0.0 | 0.0 | 0.18 | 0.53 | 0.53 | 99 | 1008.6 |
| 20260506020022 | 14 | 174 | 0.0 | 0.0 | 0.00 | 0.51 | 0.51 | 99 | 1008.6 |
| 20260506015519 | 14 | 183 | 0.0 | 0.0 | 0.13 | 0.51 | 0.51 | 99 | 1008.5 |
| 20260506015016 | 14 | 179 | 0.0 | 0.0 | 0.13 | 0.51 | 0.51 | 99 | 1008.5 |
| 20260506014513 | 14 | 183 | 0.0 | 0.0 | 0.00 | 0.48 | 0.48 | 99 | 1008.4 |
| 20260506014009 | 14 | 175 | 0.0 | 0.0 | 0.00 | 0.48 | 0.48 | 99 | 1008.3 |
| 20260506013507 | 14 | 183 | 1.6 | 1.6 | 0.00 | 0.48 | 0.48 | 99 | 1008.1 |
| 20260506013003 | 14 | 177 | 0.0 | 0.0 | 0.00 | 0.48 | 0.48 | 99 | 1008.0 |
| 20260506012459 | 14 | 182 | 0.0 | 0.0 | 0.00 | 0.48 | 0.48 | 99 | 1008.1 |
| 20260506011957 | 14 | 181 | 0.0 | 0.0 | 0.00 | 0.48 | 0.48 | 99 | 1007.9 |
| 20260506011454 | 13 | 171 | 0.0 | 0.0 | 0.00 | 0.48 | 0.48 | 99 | 1008.0 |
| 20260506010950 | 14 | 192 | 3.2 | 3.2 | 0.00 | 0.48 | 0.48 | 99 | 1008.1 |
| 20260506010450 | 14 | 183 | 1.6 | 3.2 | 0.18 | 0.48 | 0.48 | 99 | 1008.2 |
| 20260506005945 | 14 | 196 | 4.8 | 4.8 | 0.18 | 0.48 | 0.48 | 99 | 1008.0 |
| 20260506005443 | 14 | 182 | 4.8 | 4.8 | 0.00 | 0.46 | 0.46 | 99 | 1008.2 |
| 20260506004938 | 14 | 183 | 1.6 | 3.2 | 0.00 | 0.46 | 0.46 | 99 | 1008.3 |
| 20260506004437 | 14 | 181 | 1.6 | 1.6 | 0.00 | 0.46 | 0.46 | 99 | 1008.2 |
| 20260506003932 | 14 | 182 | 0.0 | 0.0 | 0.00 | 0.46 | 0.46 | 99 | 1008.3 |
| 20260506003429 | 14 | 185 | 0.0 | 0.0 | 0.00 | 0.46 | 0.46 | 99 | 1008.5 |
| 20260506002926 | 14 | 179 | 0.0 | 0.0 | 0.13 | 0.46 | 0.46 | 99 | 1008.4 |
| 20260506002421 | 14 | 181 | 0.0 | 0.0 | 0.13 | 0.46 | 0.46 | 99 | 1008.3 |
| 20260506001917 | 14 | 182 | 0.0 | 0.0 | 0.00 | 0.43 | 0.43 | 99 | 1008.2 |
| 20260506001414 | 14 | 193 | 0.0 | 0.0 | 0.18 | 0.43 | 0.43 | 99 | 1008.4 |
| 20260506000911 | 14 | 288 | 3.2 | 3.2 | 0.18 | 0.43 | 0.43 | 99 | 1008.1 |
| 20260506000409 | 14 | 224 | 0.0 | 0.0 | 0.00 | 0.41 | 0.41 | 99 | 1008.3 |
| 20260505235906 | 14 | 260 | 1.6 | 3.2 | 0.13 | 0.41 | 0.41 | 99 | 1008.2 |
| 20260505235404 | 14 | 267 | 4.8 | 4.8 | 0.30 | 0.41 | 0.41 | 99 | 1008.2 |
| 20260505234900 | 14 | 280 | 14.5 | 20.9 | 0.48 | 0.38 | 0.38 | 99 | 1008.4 |
| 20260505234358 | 14 | 263 | 9.7 | 11.3 | 0.61 | 0.36 | 0.36 | 99 | 1008.5 |
| 20260505233854 | 14 | 281 | 9.7 | 14.5 | 0.61 | 0.30 | 0.30 | 98 | 1008.2 |
| 20260505233352 | 14 | 307 | 9.7 | 11.3 | 1.55 | 0.25 | 0.25 | 97 | 1008.5 |
| 20260505232849 | 15 | 303 | 11.3 | 12.9 | 0.79 | 0.13 | 0.13 | 94 | 1008.7 |
| 20260505232348 | 18 | 229 | 24.1 | 37.0 | 0.00 | 0.00 | 0.00 | 86 | 1008.5 |
| 20260505231844 | 20 | 184 | 11.3 | 12.9 | 0.00 | 0.00 | 0.00 | 65 | 1007.5 |
| 20260505231341 | 20 | 204 | 11.3 | 14.5 | 0.00 | 0.00 | 0.00 | 66 | 1007.2 |
| 20260505230839 | 20 | 198 | 11.3 | 17.7 | 0.00 | 0.00 | 0.00 | 67 | 1007.4 |
| 20260505230336 | 20 | 191 | 4.8 | 8.0 | 0.00 | 0.00 | 0.00 | 68 | 1007.2 |
| 20260505225833 | 20 | 180 | 6.4 | 9.7 | 0.00 | 0.00 | 0.00 | 68 | 1006.9 |
| 20260505225331 | 20 | 196 | 11.3 | 16.1 | 0.00 | 0.00 | 0.00 | 67 | 1007.1 |
| 20260505224831 | 20 | 180 | 3.2 | 4.8 | 0.00 | 0.00 | 0.00 | 69 | 1007.1 |
| 20260505224329 | 20 | 172 | 9.7 | 11.3 | 0.00 | 0.00 | 0.00 | 66 | 1007.2 |
| 20260505223826 | 20 | 221 | 11.3 | 16.1 | 0.00 | 0.00 | 0.00 | 66 | 1007.3 |
| 20260505223323 | 20 | 191 | 9.7 | 16.1 | 0.00 | 0.00 | 0.00 | 67 | 1007.2 |
| 20260505222819 | 20 | 172 | 4.8 | 8.0 | 0.00 | 0.00 | 0.00 | 69 | 1007.6 |
| 20260505222315 | 20 | 196 | 11.3 | 16.1 | 0.00 | 0.00 | 0.00 | 67 | 1007.3 |
| 20260505221812 | 20 | 184 | 8.0 | 11.3 | 0.00 | 0.00 | 0.00 | 67 | 1007.5 |
| 20260505221309 | 20 | 184 | 4.8 | 9.7 | 0.00 | 0.00 | 0.00 | 68 | 1007.3 |
| 20260505220806 | 20 | 200 | 9.7 | 12.9 | 0.00 | 0.00 | 0.00 | 67 | 1007.3 |
| 20260505220303 | 20 | 167 | 6.4 | 8.0 | 0.00 | 0.00 | 0.00 | 70 | 1007.5 |
| 20260505215801 | 20 | 170 | 1.6 | 1.6 | 0.00 | 0.00 | 0.00 | 69 | 1007.5 |
| 20260505215259 | 20 | 193 | 6.4 | 8.0 | 0.00 | 0.00 | 0.00 | 68 | 1007.2 |
| 20260505214756 | 20 | 194 | 3.2 | 3.2 | 0.00 | 0.00 | 0.00 | 68 | 1007.5 |
| 20260505214253 | 20 | 169 | 6.4 | 9.7 | 0.00 | 0.00 | 0.00 | 67 | 1007.5 |
| 20260505213750 | 20 | 168 | 4.8 | 8.0 | 0.00 | 0.00 | 0.00 | 68 | 1007.4 |
| 20260505213248 | 20 | 196 | 11.3 | 12.9 | 0.00 | 0.00 | 0.00 | 67 | 1007.5 |
| 20260505212743 | 20 | 200 | 14.5 | 17.7 | 0.00 | 0.00 | 0.00 | 67 | 1007.3 |
| 20260505212241 | 20 | 180 | 6.4 | 8.0 | 0.00 | 0.00 | 0.00 | 69 | 1007.5 |
| 20260505211738 | 20 | 251 | 3.2 | 4.8 | 0.00 | 0.00 | 0.00 | 69 | 1007.7 |
| 20260505211235 | 20 | 278 | 4.8 | 9.7 | 0.00 | 0.00 | 0.00 | 68 | 1007.9 |
| 20260505210731 | 20 | 182 | 11.3 | 12.9 | 0.00 | 0.00 | 0.00 | 68 | 1007.6 |
| 20260505210228 | 20 | 217 | 4.8 | 4.8 | 0.00 | 0.00 | 0.00 | 70 | 1007.6 |
| 20260505205726 | 20 | 199 | 9.7 | 11.3 | 0.00 | 0.00 | 0.00 | 68 | 1007.7 |
| 20260505205224 | 20 | 281 | 8.0 | 11.3 | 0.00 | 0.00 | 0.00 | 69 | 1007.6 |
| 20260505204720 | 20 | 176 | 4.8 | 11.3 | 0.00 | 0.00 | 0.00 | 69 | 1007.7 |
| 20260505204218 | 20 | 178 | 8.0 | 9.7 | 0.00 | 0.00 | 0.00 | 68 | 1007.9 |
| 20260505203715 | 20 | 180 | 6.4 | 9.7 | 0.00 | 0.00 | 0.00 | 68 | 1007.9 |
| 20260505203212 | 20 | 182 | 11.3 | 12.9 | 0.00 | 0.00 | 0.00 | 69 | 1008.0 |
| 20260505202708 | 20 | 184 | 4.8 | 4.8 | 0.00 | 0.00 | 0.00 | 70 | 1008.0 |
| 20260505202204 | 20 | 188 | 4.8 | 8.0 | 0.00 | 0.00 | 0.00 | 69 | 1008.0 |
| 20260505201700 | 20 | 206 | 3.2 | 4.8 | 0.00 | 0.00 | 0.00 | 69 | 1007.9 |
| 20260505201159 | 20 | 239 | 6.4 | 8.0 | 0.00 | 0.00 | 0.00 | 68 | 1008.2 |
| 20260505200656 | 20 | 210 | 3.2 | 4.8 | 0.00 | 0.00 | 0.00 | 70 | 1008.0 |
| 20260505200153 | 20 | 198 | 11.3 | 12.9 | 0.00 | 0.00 | 0.00 | 69 | 1008.3 |
| 20260505195649 | 20 | 227 | 16.1 | 17.7 | 0.00 | 0.00 | 0.00 | 68 | 1008.2 |
| 20260505195146 | 20 | 190 | 4.8 | 4.8 | 0.00 | 0.00 | 0.00 | 70 | 1008.3 |
| 20260505194643 | 20 | 193 | 9.7 | 16.1 | 0.00 | 0.00 | 0.00 | 69 | 1008.2 |
| 20260505194139 | 19 | 251 | 6.4 | 8.0 | 0.00 | 0.00 | 0.00 | 72 | 1008.4 |
| 20260505193636 | 19 | 193 | 3.2 | 4.8 | 0.00 | 0.00 | 0.00 | 72 | 1008.5 |
| 20260505193133 | 19 | 267 | 11.3 | 20.9 | 0.00 | 0.00 | 0.00 | 71 | 1008.4 |
| 20260505192632 | 19 | 263 | 16.1 | 20.9 | 0.00 | 0.00 | 0.00 | 71 | 1008.4 |
| 20260505192129 | 20 | 170 | 11.3 | 16.1 | 0.00 | 0.00 | 0.00 | 69 | 1008.3 |
| 20260505191627 | 20 | 181 | 22.5 | 25.7 | 0.00 | 0.00 | 0.00 | 68 | 1007.9 |
| 20260505191125 | 20 | 176 | 8.0 | 12.9 | 0.00 | 0.00 | 0.00 | 67 | 1008.0 |
| 20260505190621 | 20 | 185 | 9.7 | 22.5 | 0.00 | 0.00 | 0.00 | 66 | 1008.1 |
| 20260505190115 | 21 | 216 | 4.8 | 9.7 | 0.00 | 0.00 | 0.00 | 65 | 1008.1 |
| 20260505185613 | 21 | 197 | 4.8 | 4.8 | 0.00 | 0.00 | 0.00 | 66 | 1008.2 |
| 20260505185109 | 21 | 265 | 11.3 | 12.9 | 0.00 | 0.00 | 0.00 | 65 | 1008.3 |
| 20260505184606 | 21 | 252 | 8.0 | 11.3 | 0.00 | 0.00 | 0.00 | 67 | 1008.3 |
| 20260505184102 | 20 | 266 | 12.9 | 14.5 | 0.00 | 0.00 | 0.00 | 65 | 1008.4 |
| 20260505183559 | 20 | 252 | 6.4 | 9.7 | 0.00 | 0.00 | 0.00 | 65 | 1008.5 |
| 20260505183057 | 21 | 199 | 9.7 | 16.1 | 0.00 | 0.00 | 0.00 | 65 | 1008.7 |
| 20260505182553 | 20 | 256 | 6.4 | 9.7 | 0.00 | 0.00 | 0.00 | 66 | 1008.7 |
| 20260505182050 | 20 | 245 | 6.4 | 14.5 | 0.00 | 0.00 | 0.00 | 66 | 1008.6 |
| 20260505181546 | 20 | 178 | 8.0 | 9.7 | 0.00 | 0.00 | 0.00 | 67 | 1008.6 |
| 20260505181044 | 20 | 289 | 20.9 | 24.1 | 0.00 | 0.00 | 0.00 | 63 | 1008.8 |